Temperature
30 31 32 32 32 32 32 32 32 32 32 31 31 31 30 28 28 27 26 25 24 23 22 21 21 20 20 20 19 19 19 19 19 19 18 18 18 18 18 18 18 18 18 18
31 31 32 32 32 31 32 32 32 32 31 31 31 31 31 29 28 27 27 25 25 24 23 21 21 20 20 20 20 19 19 19 19 19 19 18 18 18 18 18 18 18 18 18
31 32 31 31 31 31 32 32 32 31 31 31 31 31 30 30 28 27 27 26 25 24 23 22 21 21 20 20 20 19 19 19 19 19 18 18 18 18 18 18 18 18 18 18
31 31 31 31 31 31 31 32 32 31 31 32 31 31 31 30 29 29 28 27 26 25 24 23 21 21 21 20 20 20 19 19 19 19 19 18 18 18 18 18 18 18 18 18
31 31 31 31 31 31 31 31 31 31 31 31 31 31 32 31 30 30 29 27 26 25 24 23 22 21 21 20 20 19 19 19 19 19 19 19 18 18 18 18 18 18 18 18
31 31 31 31 31 31 31 31 31 31 32 30 31 31 31 32 31 31 30 28 26 25 24 23 22 21 20 20 20 20 19 19 19 19 19 19 19 18 18 18 18 18 18 17
30 31 31 31 31 31 31 31 30 30 30 31 31 31 31 31 31 31 30 28 26 25 24 23 22 21 20 20 20 20 20 19 19 19 19 19 19 18 18 18 18 18 18 17
30 30 31 31 31 31 31 31 30 30 30 31 30 30 32 31 30 29 29 28 26 25 24 23 22 21 21 20 20 20 19 19 19 19 19 19 19 18 18 18 18 17 17 17
30 30 31 31 31 31 31 31 32 31 31 30 31 31 31 31 30 29 29 27 27 25 24 23 22 21 21 20 20 20 19 19 19 19 19 19 19 18 18 18 18 17 17 17
30 29 31 30 30 30 31 31 31 31 29 29 30 31 31 30 30 30 29 28 26 25 24 23 22 22 21 20 20 19 19 19 19 19 18 18 18 18 18 18 18 18 18 18
30 29 30 30 30 30 30 30 30 30 30 29 30 31 31 30 30 29 29 27 26 25 24 23 22 22 21 20 20 19 19 19 19 18 18 18 18 18 18 18 18 18 18 17
29 29 29 30 30 30 30 30 30 29 29 29 30 30 31 30 30 29 28 27 25 24 24 23 22 21 21 20 20 19 19 19 18 18 18 18 18 18 18 17 17 17 17 17
28 28 28 29 29 29 29 30 30 30 30 29 29 30 30 29 29 28 27 26 24 23 23 22 22 21 20 20 20 19 19 18 18 18 18 18 17 17 17 17 17 17 17 17
27 28 28 29 29 29 29 29 29 29 30 29 29 30 30 29 28 28 26 24 23 23 22 22 21 20 20 20 19 19 18 18 18 18 18 17 17 17 17 17 17 17 17 16
27 28 28 29 29 29 29 29 29 29 29 29 29 29 29 29 28 26 25 24 23 22 21 21 20 20 19 19 19 18 18 18 18 18 17 17 17 17 17 17 17 17 16 16
27 27 27 27 28 28 28 29 28 28 29 29 29 29 29 27 26 25 24 23 22 22 21 20 20 19 19 19 19 18 18 18 18 18 17 17 17 17 16 16 16 16 16 16
26 26 26 27 28 27 27 28 28 28 29 29 28 29 28 27 25 24 23 23 22 21 21 20 19 19 19 18 18 18 18 18 18 17 17 17 16 16 16 16 16 16 15 15
25 25 26 27 26 25 28 28 28 28 28 28 28 27 26 25 24 23 22 22 21 21 20 19 19 19 18 18 18 18 18 17 17 17 17 16 16 16 16 16 16 15 15 15
25 24 25 26 26 26 27 27 27 26 27 27 26 26 25 24 23 23 21 21 20 20 19 19 18 18 18 18 18 18 17 17 17 17 16 16 16 15 15 15 15 15 15 15
24 23 24 25 25 25 27 26 25 26 25 26 25 25 24 23 25 24 21 20 19 19 18 18 18 18 17 17 17 17 17 17 16 16 16 16 15 15 15 15 15 15 15 15
23 23 24 24 24 26 25 24 24 25 25 24 23 23 23 23 23 21 19 19 18 18 17 17 17 17 17 17 17 17 17 16 16 16 16 15 15 15 15 15 15 15 15 15
23 24 23 24 24 24 23 23 24 23 22 22 22 22 21 21 20 19 19 18 18 17 17 17 17 17 17 16 16 16 16 16 16 16 15 15 15 15 15 15 15 15 15 14
22 23 23 23 23 21 21 22 21 20 20 20 20 20 20 19 19 18 18 17 17 17 17 16 16 16 16 16 16 16 16 16 15 15 15 15 15 15 14 14 14 14 14 14
21 20 21 21 22 21 20 20 19 19 19 19 19 19 19 19 18 18 17 17 16 16 16 16 16 16 16 15 15 15 15 15 15 14 14 14 14 14 14 14 14 14 14 14
21 20 21 20 21 20 19 19 18 18 18 18 18 18 18 17 17 17 16 16 16 15 15 16 16 15 15 15 15 15 14 14 14 14 14 14 14 14 13 13 13 13 13 14
20 20 20 20 20 19 19 18 18 17 17 17 17 17 17 17 16 16 15 15 15 15 15 15 15 15 15 15 14 14 14 14 14 14 13 14 14 14 13 13 13 13 13 13
Wind_Speed
6 8 7 4 4 4 4 4 3 1 0 3 3 2 3 6 7 7 7 8 9 9 9 9 9 8 7 6 6 6 5 5 4 3 3 3 3 2 2 2 2 3 3 3
8 9 5 3 4 5 6 6 4 2 1 3 4 4 3 5 7 7 8 9 9 9 10 10 10 9 8 8 7 7 6 6 5 4 3 3 2 2 2 2 2 3 3 3
11 3 3 6 6 7 7 7 6 4 3 5 6 5 5 6 6 7 8 9 10 10 11 11 11 10 9 9 8 7 7 6 5 4 3 3 3 3 2 2 2 2 3 3
8 6 5 7 7 8 7 4 6 6 8 5 5 6 4 6 7 7 8 9 10 10 10 10 11 11 10 9 8 7 7 6 5 5 4 4 4 3 2 2 1 1 1 2
7 7 7 8 6 7 5 3 5 7 8 9 6 7 3 5 6 7 8 9 10 11 11 11 11 11 10 9 8 8 7 7 6 6 5 5 4 3 2 2 1 1 1 1
7 5 6 6 5 5 4 5 6 8 9 9 6 8 5 3 5 5 7 9 9 10 10 11 10 10 10 9 9 9 8 8 7 6 6 6 5 4 3 2 1 2 1 1
11 9 7 6 7 7 8 8 7 7 8 6 3 7 5 2 3 4 5 7 9 9 9 10 10 10 10 10 10 9 9 8 7 7 7 6 6 4 4 3 2 2 2 2
12 11 10 8 9 7 9 10 8 8 7 5 5 6 3 1 2 3 4 5 7 9 9 9 10 10 9 10 10 9 9 9 8 7 6 5 5 4 4 3 3 3 2 2
10 10 7 7 7 8 8 9 9 10 10 9 6 5 5 4 4 4 5 5 6 7 8 8 9 9 9 9 9 9 9 8 8 7 6 5 5 4 4 3 4 3 2 2
7 9 8 7 7 7 8 8 7 9 8 10 8 8 5 5 5 4 4 4 4 5 6 7 7 8 8 9 9 8 9 8 7 7 7 6 6 5 4 4 3 3 2 2
9 10 9 9 10 10 8 9 9 9 9 10 9 5 0 2 3 4 4 3 4 5 6 6 6 7 7 7 8 8 8 8 7 7 7 6 6 5 5 4 4 3 3 3
9 8 10 10 7 6 9 10 11 10 9 10 11 6 3 1 1 2 2 3 2 3 5 5 5 6 7 7 7 8 7 8 7 7 7 6 5 5 5 4 4 4 3 4
7 8 9 11 10 9 9 10 11 11 10 11 12 6 4 3 1 2 2 2 2 3 4 4 5 5 6 7 7 7 7 7 7 7 6 6 6 5 5 4 4 4 4 4
6 9 11 12 7 7 10 10 11 12 12 12 13 10 5 3 3 2 2 2 2 3 4 4 4 5 5 6 7 7 6 6 6 6 6 6 6 5 5 5 4 4 4 4
7 10 11 12 9 9 12 12 12 13 13 13 12 11 8 4 4 3 3 4 4 4 4 4 4 4 5 6 6 6 6 6 6 6 6 5 5 5 5 5 4 4 5 5
6 8 10 12 11 11 12 13 13 14 13 13 12 11 5 3 3 3 3 4 5 5 5 5 5 5 5 5 6 6 6 6 6 6 5 5 5 4 4 4 4 4 4 4
6 7 9 12 10 11 14 13 13 12 11 12 12 8 3 4 3 4 4 5 5 5 5 5 5 5 4 5 6 6 6 6 6 6 5 5 5 4 4 4 4 4 4 4
8 9 8 10 9 14 7 3 7 9 9 8 8 5 4 4 3 3 3 3 4 4 5 5 4 4 4 4 4 5 6 6 6 6 5 5 5 5 4 4 3 4 4 4
9 9 9 10 13 14 8 4 5 8 9 6 6 5 3 2 4 3 1 2 3 3 3 3 3 3 3 3 4 5 6 6 6 6 5 5 5 5 5 4 4 3 3 3
7 9 10 11 12 13 5 2 2 6 9 2 3 4 4 4 6 1 1 2 2 2 2 3 3 3 3 3 4 5 6 5 5 5 5 5 5 5 5 4 4 4 4 4
8 8 12 13 13 10 1 0 4 8 3 2 3 4 4 5 5 3 2 2 1 1 1 2 3 3 2 3 4 5 5 5 5 4 5 5 5 5 5 4 4 4 4 4
7 7 9 10 12 7 3 1 3 3 4 4 5 4 4 3 3 2 1 1 1 1 1 2 2 2 2 3 4 5 5 4 4 4 4 5 5 5 4 4 4 4 4 5
5 4 4 5 3 2 2 3 4 4 5 5 5 4 3 3 3 3 2 2 1 1 1 2 2 2 2 3 4 4 4 4 4 4 4 4 4 5 5 5 5 5 5 5
4 2 4 5 4 4 4 4 4 5 5 5 5 4 4 4 4 3 2 2 2 2 2 2 3 2 2 3 3 3 3 3 4 4 4 4 4 5 5 5 6 5 5 5
4 4 5 8 6 5 5 5 6 6 5 4 4 3 3 3 3 2 2 2 2 2 2 2 2 2 2 2 2 2 3 3 4 4 4 4 4 4 4 5 4 5 4 4
6 7 8 7 5 6 7 7 7 6 5 4 3 3 3 3 3 2 2 2 2 2 2 2 2 2 2 2 2 2 2 3 3 4 4 4 4 4 4 4 4 3 4 4
Wind_Direction
200 222 223 226 250 283 276 265 261 251 70 270 272 266 194 182 194 191 188 184 187 189 180 176 177 178 173 170 169 174 179 173 179 186 199 200 205 217 226 233 233 251 259 250
205 221 231 241 243 247 250 254 248 209 192 277 283 273 208 185 203 204 201 194 193 190 183 182 182 184 184 182 184 183 185 184 190 188 199 209 221 224 229 249 238 256 259 251
222 198 193 222 227 238 244 260 268 264 247 235 267 244 201 183 193 201 207 203 198 195 191 186 187 189 189 190 192 192 188 190 197 198 201 197 197 221 217 231 236 266 273 265
224 210 210 228 235 248 247 265 266 256 259 265 263 280 198 190 192 200 202 201 200 196 193 190 189 193 196 194 193 192 190 193 198 199 206 207 212 221 230 238 232 249 267 265
208 206 217 231 240 249 271 273 254 257 262 269 250 274 227 191 215 209 204 202 200 197 194 191 190 191 197 195 194 190 189 195 198 202 204 213 224 230 232 223 214 253 243 261
229 211 232 236 233 227 208 220 227 241 252 255 258 267 262 222 238 220 203 203 200 197 196 193 189 186 192 196 195 190 188 196 198 201 205 212 222 230 238 238 244 240 245 256
218 213 208 216 215 197 221 242 245 238 235 249 235 259 269 266 247 233 212 200 196 192 192 190 189 187 190 193 196 194 190 195 199 203 208 211 216 218 225 239 232 253 270 274
220 215 203 211 229 229 229 248 259 269 269 259 216 251 260 220 221 215 202 187 185 187 190 190 188 188 190 192 195 197 194 195 197 200 204 210 213 219 220 228 250 245 264 279
230 222 188 205 222 240 231 240 264 269 270 271 256 252 234 206 205 199 187 178 180 184 188 189 187 187 189 192 195 196 195 193 193 194 195 201 207 220 225 228 237 247 250 258
241 238 208 196 208 219 251 250 246 255 263 266 257 250 247 210 211 198 184 175 167 172 177 180 183 186 189 192 193 194 193 191 191 192 196 196 202 208 215 227 231 245 249 259
238 237 217 205 219 221 207 221 239 254 260 266 269 262 96 206 205 205 189 172 167 173 175 179 184 188 188 187 187 187 189 190 193 197 198 204 205 206 211 218 224 229 241 243
223 238 233 221 219 249 239 238 234 243 248 255 271 268 109 153 188 205 201 178 174 177 178 182 185 183 185 184 181 181 188 192 193 194 197 202 206 209 214 216 220 227 238 245
205 230 230 218 210 207 226 233 239 248 252 253 258 255 139 152 195 222 224 196 176 181 175 172 177 182 185 183 179 179 185 188 185 184 195 202 210 210 214 217 220 225 232 243
222 236 241 245 243 222 223 229 235 243 248 251 255 267 243 244 255 243 222 204 192 187 187 177 177 184 186 183 179 181 182 179 181 185 193 200 211 211 214 217 218 223 229 238
225 239 244 255 255 251 245 240 236 240 253 263 267 266 273 270 263 255 225 206 201 195 200 189 181 181 184 183 180 182 183 183 185 187 193 198 201 203 207 211 216 222 231 237
227 247 246 246 245 246 249 243 240 243 247 254 262 266 279 270 262 248 234 219 215 210 206 194 183 183 189 187 185 184 188 187 185 188 191 192 197 200 205 210 216 224 233 238
219 234 246 247 241 247 245 239 237 239 243 252 258 272 291 273 272 262 252 232 224 220 211 200 190 190 192 193 188 185 186 185 182 183 185 190 193 198 208 218 219 228 236 240
230 236 242 249 240 244 251 241 242 245 249 254 263 280 283 287 274 265 256 241 225 217 210 205 200 189 188 195 192 185 180 184 187 189 193 197 202 206 208 214 224 238 247 250
229 227 238 242 243 249 237 217 227 240 244 244 253 264 269 265 245 232 210 249 239 227 221 215 210 196 183 185 185 182 184 187 194 195 197 202 209 213 213 220 229 238 242 244
205 217 234 237 247 253 245 151 233 245 238 225 266 267 254 240 257 271 18 294 267 248 223 204 188 174 172 177 188 189 188 192 200 205 205 206 209 213 216 223 232 238 240 242
200 211 229 238 244 249 12 80 212 235 246 17 325 292 262 255 297 328 322 303 275 240 206 183 173 172 171 182 191 197 191 201 209 213 211 210 209 212 217 224 229 235 236 239
229 229 227 236 243 242 73 193 247 322 356 329 316 296 276 277 300 291 284 271 256 231 199 189 180 179 182 197 200 198 195 203 205 210 214 216 219 224 216 222 231 233 237 235
231 259 260 252 262 13 321 301 320 314 303 302 300 295 272 258 265 264 258 241 240 234 214 204 196 196 207 218 215 204 201 201 200 206 216 222 223 228 230 229 232 234 235 246
219 268 257 259 262 291 285 295 306 305 303 297 289 277 257 253 261 263 252 238 236 226 215 213 209 205 218 228 224 208 205 200 200 209 218 229 232 232 232 240 238 243 245 251
254 237 250 256 268 280 270 292 306 308 307 297 281 267 259 247 247 246 251 254 253 250 244 238 235 233 233 225 216 213 199 199 210 219 227 237 242 245 247 247 259 257 258 260
240 245 250 259 274 282 286 293 296 297 306 306 283 263 251 236 221 216 228 250 249 250 265 264 255 243 236 221 212 221 213 210 222 232 242 250 252 249 251 250 252 243 246 227
Height
1507 1504 1500 1498 1498 1498 1498 1500 1502 1500 1500 1501 1501 1502 1503 1509 1511 1513 1516 1519 1521 1523 1526 1528 1529 1531 1533 1534 1535 1536 1538 1539 1539 1540 1541 1542 1542 1543 1543 1543 1543 1542 1542 1542
1504 1502 1498 1498 1499 1500 1499 1501 1500 1499 1500 1501 1500 1500 1500 1505 1508 1511 1514 1516 1519 1521 1524 1526 1528 1529 1531 1532 1533 1534 1536 1537 1538 1539 1540 1540 1541 1542 1542 1542 1541 1541 1541 1540
1499 1497 1499 1500 1500 1501 1499 1500 1499 1501 1500 1499 1501 1501 1499 1501 1506 1509 1511 1513 1516 1518 1521 1523 1525 1527 1529 1530 1531 1533 1534 1535 1537 1538 1539 1540 1540 1541 1541 1541 1540 1540 1539 1538
1497 1497 1500 1500 1499 1499 1500 1496 1498 1500 1502 1499 1501 1507 1497 1497 1501 1504 1507 1510 1512 1515 1518 1521 1523 1525 1526 1528 1530 1531 1532 1533 1535 1536 1537 1538 1539 1539 1539 1539 1539 1539 1538 1537
1496 1496 1498 1500 1498 1497 1497 1496 1497 1498 1499 1501 1498 1504 1496 1493 1497 1498 1502 1506 1509 1512 1515 1518 1520 1522 1524 1526 1528 1529 1530 1531 1533 1534 1535 1536 1537 1538 1538 1538 1538 1538 1537 1536
1493 1495 1496 1495 1496 1497 1497 1499 1498 1496 1496 1508 1500 1504 1500 1490 1492 1493 1497 1502 1506 1509 1512 1515 1518 1520 1522 1524 1526 1527 1528 1529 1531 1532 1533 1534 1535 1536 1536 1536 1537 1537 1537 1536
1496 1493 1494 1495 1495 1497 1497 1500 1507 1510 1508 1505 1495 1500 1495 1486 1488 1491 1494 1499 1503 1506 1509 1512 1515 1517 1519 1521 1523 1524 1525 1526 1528 1529 1531 1532 1533 1534 1534 1535 1535 1535 1535 1535
1497 1496 1490 1491 1493 1494 1494 1495 1509 1517 1510 1499 1496 1498 1488 1485 1489 1492 1494 1497 1501 1504 1507 1509 1512 1514 1516 1518 1520 1521 1522 1524 1525 1527 1528 1530 1531 1532 1532 1533 1533 1533 1533 1533
1490 1492 1487 1489 1490 1490 1493 1492 1487 1495 1497 1502 1494 1489 1484 1485 1488 1491 1493 1496 1499 1502 1504 1507 1510 1512 1514 1515 1517 1518 1519 1521 1522 1524 1525 1527 1528 1529 1530 1530 1530 1531 1530 1530
1485 1493 1486 1488 1490 1490 1489 1487 1491 1495 1511 1511 1499 1493 1488 1486 1486 1488 1491 1495 1498 1500 1503 1505 1508 1510 1512 1513 1515 1516 1517 1519 1520 1522 1523 1525 1525 1526 1527 1527 1528 1528 1528 1527
1485 1491 1488 1487 1489 1487 1492 1492 1492 1491 1493 1505 1505 1493 1477 1482 1484 1487 1490 1494 1497 1499 1501 1503 1506 1508 1509 1511 1512 1513 1515 1517 1518 1520 1521 1522 1523 1524 1524 1525 1525 1525 1525 1525
1486 1486 1488 1485 1481 1483 1483 1484 1488 1497 1499 1496 1496 1491 1477 1480 1483 1486 1489 1493 1496 1498 1499 1501 1503 1505 1507 1509 1510 1511 1513 1515 1516 1517 1518 1519 1520 1521 1522 1522 1522 1522 1522 1522
1486 1488 1496 1492 1489 1486 1485 1483 1483 1484 1488 1492 1495 1489 1478 1481 1484 1487 1490 1492 1495 1496 1498 1500 1501 1503 1504 1506 1508 1509 1511 1513 1514 1515 1516 1517 1518 1518 1519 1519 1519 1519 1519 1519
1487 1484 1488 1490 1484 1479 1484 1484 1483 1485 1487 1488 1486 1482 1478 1480 1484 1487 1490 1492 1494 1495 1497 1498 1500 1501 1503 1504 1506 1507 1509 1511 1512 1513 1514 1514 1515 1515 1516 1516 1516 1516 1516 1516
1485 1484 1481 1478 1476 1478 1479 1481 1482 1484 1482 1484 1480 1478 1476 1480 1484 1487 1490 1492 1493 1494 1495 1496 1498 1500 1501 1503 1504 1505 1507 1508 1509 1510 1511 1512 1512 1513 1513 1513 1513 1513 1513 1513
1484 1484 1483 1482 1476 1477 1479 1477 1478 1479 1479 1478 1478 1477 1475 1481 1484 1487 1488 1490 1491 1492 1493 1495 1496 1497 1499 1500 1501 1503 1504 1505 1506 1508 1509 1509 1509 1510 1510 1510 1510 1510 1510 1510
1482 1485 1487 1482 1476 1479 1482 1473 1473 1475 1474 1475 1477 1475 1477 1480 1484 1486 1487 1488 1489 1490 1492 1493 1494 1495 1496 1498 1499 1500 1501 1503 1504 1505 1505 1506 1507 1507 1507 1508 1507 1507 1507 1506
1485 1485 1483 1481 1485 1494 1473 1468 1469 1472 1472 1473 1474 1476 1479 1481 1484 1486 1486 1487 1487 1489 1490 1491 1492 1493 1494 1495 1497 1498 1499 1500 1501 1502 1502 1503 1504 1504 1504 1504 1504 1504 1503 1503
1481 1484 1482 1481 1483 1477 1470 1470 1472 1474 1474 1474 1475 1477 1479 1481 1482 1483 1485 1486 1487 1487 1488 1489 1490 1491 1492 1493 1494 1495 1496 1497 1498 1499 1499 1500 1501 1501 1501 1501 1501 1500 1500 1500
1481 1483 1482 1481 1486 1483 1469 1469 1473 1475 1476 1475 1476 1477 1479 1480 1477 1479 1484 1485 1485 1486 1486 1487 1488 1489 1490 1490 1492 1493 1493 1494 1495 1496 1496 1497 1498 1498 1498 1498 1498 1497 1497 1497
1480 1482 1481 1479 1480 1470 1470 1472 1475 1480 1476 1477 1477 1478 1479 1480 1480 1482 1483 1484 1484 1484 1484 1485 1485 1486 1487 1488 1489 1490 1490 1491 1492 1493 1494 1494 1495 1495 1495 1495 1495 1494 1494 1494
1476 1476 1478 1477 1480 1477 1474 1474 1475 1476 1477 1477 1478 1478 1479 1480 1481 1481 1481 1482 1482 1482 1483 1483 1483 1484 1484 1485 1486 1486 1487 1488 1489 1489 1491 1491 1492 1492 1493 1492 1492 1492 1491 1491
1476 1476 1473 1475 1476 1477 1477 1477 1478 1479 1478 1477 1477 1477 1478 1479 1480 1480 1480 1480 1480 1480 1480 1481 1482 1482 1482 1483 1483 1483 1484 1485 1485 1486 1487 1488 1488 1489 1489 1489 1489 1489 1488 1488
1476 1480 1478 1477 1474 1477 1478 1478 1478 1478 1477 1476 1476 1476 1476 1477 1478 1478 1478 1478 1478 1478 1478 1479 1480 1480 1480 1480 1481 1481 1481 1482 1482 1483 1484 1485 1485 1485 1485 1485 1486 1486 1485 1485
1476 1478 1477 1477 1476 1477 1476 1477 1477 1476 1475 1474 1474 1474 1475 1475 1475 1476 1476 1476 1476 1476 1476 1477 1477 1477 1478 1478 1478 1479 1479 1479 1480 1480 1480 1481 1482 1482 1482 1482 1482 1481 1481 1480
1475 1476 1476 1473 1475 1476 1475 1475 1475 1474 1473 1472 1472 1472 1473 1473 1473 1474 1474 1474 1474 1474 1474 1474 1475 1475 1475 1476 1476 1476 1477 1477 1477 1477 1478 1478 1479 1479 1479 1478 1478 1477 1477 1476